| time (UTC) | temp F | wind direction | speed MPH | gust MPH | rain 1hr in | rain 24hr in | rain mn in | humidity % | barometer mb |
| 20260510202704 | 70 | 308 | 3.0 | 9.0 | 0.00 | 0.16 | 0.00 | 55 | 1012.9 |
| 20260510201825 | 71 | 325 | 2.0 | 6.0 | 0.00 | 0.16 | 0.00 | 54 | 1012.6 |
| 20260510200925 | 72 | 310 | 1.0 | 4.0 | 0.00 | 0.16 | 0.00 | 54 | 1012.7 |
| 20260510200004 | 72 | 306 | 1.0 | 6.0 | 0.00 | 0.16 | 0.00 | 56 | 1012.7 |
| 20260510195404 | 72 | 288 | 2.0 | 6.0 | 0.00 | 0.16 | 0.00 | 52 | 1012.8 |
| 20260510194525 | 73 | 320 | 2.0 | 7.0 | 0.00 | 0.16 | 0.00 | 52 | 1012.7 |
| 20260510193604 | 73 | 328 | 3.0 | 7.0 | 0.00 | 0.17 | 0.00 | 52 | 1012.8 |
| 20260510192704 | 74 | 308 | 3.0 | 8.0 | 0.00 | 0.17 | 0.00 | 55 | 1012.7 |
| 20260510191825 | 74 | 290 | 3.0 | 10.0 | 0.00 | 0.17 | 0.00 | 50 | 1012.7 |
| 20260510190904 | 74 | 288 | 3.0 | 8.0 | 0.00 | 0.17 | 0.00 | 52 | 1012.8 |
| 20260510190004 | 74 | 316 | 3.0 | 8.0 | 0.00 | 0.17 | 0.00 | 53 | 1012.8 |
| 20260510185404 | 74 | 266 | 3.0 | 8.0 | 0.00 | 0.17 | 0.00 | 55 | 1012.8 |
| 20260510184504 | 74 | 324 | 3.0 | 8.0 | 0.00 | 0.17 | 0.00 | 53 | 1012.9 |
| 20260510183625 | 74 | 233 | 2.0 | 7.0 | 0.00 | 0.17 | 0.00 | 59 | 1013.0 |
| 20260510182704 | 73 | 174 | 2.0 | 7.0 | 0.00 | 0.17 | 0.00 | 62 | 1013.0 |
| 20260510181804 | 73 | 292 | 2.0 | 8.0 | 0.00 | 0.18 | 0.00 | 60 | 1013.0 |
| 20260510180925 | 74 | 176 | 2.0 | 6.0 | 0.00 | 0.18 | 0.00 | 62 | 1013.0 |
| 20260510180004 | 74 | 191 | 2.0 | 7.0 | 0.00 | 0.18 | 0.00 | 61 | 1013.0 |
| 20260510175425 | 74 | 274 | 2.0 | 7.0 | 0.00 | 0.18 | 0.00 | 60 | 1012.9 |
| 20260510174504 | 74 | 295 | 1.0 | 4.0 | 0.00 | 0.20 | 0.00 | 59 | 1012.9 |
| 20260510173625 | 74 | 320 | 2.0 | 6.0 | 0.00 | 0.29 | 0.00 | 63 | 1012.8 |
| 20260510172704 | 73 | 310 | 2.0 | 7.0 | 0.00 | 0.33 | 0.00 | 64 | 1012.9 |
| 20260510171804 | 72 | 182 | 3.0 | 8.0 | 0.00 | 0.33 | 0.00 | 64 | 1012.8 |
| 20260510170903 | 72 | 184 | 2.0 | 12.0 | 0.00 | 0.33 | 0.00 | 65 | 1012.9 |
| 20260510170004 | 71 | 162 | 1.0 | 5.0 | 0.00 | 0.33 | 0.00 | 67 | 1013.0 |
| 20260510165405 | 71 | 218 | 2.0 | 5.0 | 0.00 | 0.33 | 0.00 | 66 | 1013.1 |
| 20260510164504 | 69 | 182 | 3.0 | 7.0 | 0.00 | 0.33 | 0.00 | 72 | 1013.2 |
| 20260510163603 | 68 | 227 | 2.0 | 6.0 | 0.00 | 0.33 | 0.00 | 71 | 1013.3 |
| 20260510162724 | 67 | 232 | 3.0 | 8.0 | 0.00 | 0.33 | 0.00 | 72 | 1013.4 |
| 20260510161803 | 67 | 153 | 3.0 | 10.0 | 0.00 | 0.33 | 0.00 | 73 | 1013.5 |
| 20260510160903 | 66 | 172 | 2.0 | 7.0 | 0.00 | 0.33 | 0.00 | 73 | 1013.5 |
| 20260510160024 | 65 | 207 | 4.0 | 9.0 | 0.00 | 0.33 | 0.00 | 74 | 1013.5 |
| 20260510155405 | 66 | 176 | 3.0 | 7.0 | 0.00 | 0.33 | 0.00 | 74 | 1013.4 |
| 20260510154503 | 66 | 154 | 2.0 | 7.0 | 0.00 | 0.33 | 0.00 | 75 | 1013.5 |
| 20260510153604 | 65 | 168 | 2.0 | 8.0 | 0.00 | 0.33 | 0.00 | 77 | 1013.7 |
| 20260510152703 | 64 | 163 | 3.0 | 9.0 | 0.00 | 0.33 | 0.00 | 79 | 1013.6 |
| 20260510151803 | 63 | 160 | 3.0 | 8.0 | 0.00 | 0.33 | 0.00 | 80 | 1013.6 |
| 20260510150903 | 62 | 172 | 2.0 | 6.0 | 0.00 | 0.33 | 0.00 | 83 | 1013.7 |
| 20260510150003 | 62 | 126 | 1.0 | 4.0 | 0.00 | 0.33 | 0.00 | 83 | 1013.8 |
| 20260510145424 | 62 | 190 | 1.0 | 4.0 | 0.00 | 0.33 | 0.00 | 85 | 1013.8 |
| 20260510144504 | 61 | 196 | 1.0 | 4.0 | 0.00 | 0.33 | 0.00 | 85 | 1013.7 |
| 20260510143605 | 60 | 159 | 2.0 | 6.0 | 0.00 | 0.33 | 0.00 | 89 | 1013.6 |
| 20260510142703 | 58 | 170 | 2.0 | 6.0 | 0.00 | 0.33 | 0.00 | 93 | 1013.6 |
| 20260510141803 | 57 | 175 | 2.0 | 5.0 | 0.00 | 0.33 | 0.00 | 94 | 1013.7 |
| 20260510140903 | 57 | 168 | 1.0 | 4.0 | 0.00 | 0.33 | 0.00 | 95 | 1013.6 |
| 20260510140003 | 56 | 191 | 1.0 | 5.0 | 0.00 | 0.33 | 0.00 | 95 | 1013.6 |
| 20260510135403 | 56 | 203 | 1.0 | 3.0 | 0.00 | 0.33 | 0.00 | 96 | 1013.6 |
| 20260510134503 | 56 | 184 | 2.0 | 6.0 | 0.00 | 0.33 | 0.00 | 96 | 1013.5 |
| 20260510133624 | 55 | 198 | 1.0 | 3.0 | 0.00 | 0.33 | 0.00 | 96 | 1013.5 |
| 20260510132703 | 55 | 194 | 1.0 | 5.0 | 0.00 | 0.33 | 0.00 | 96 | 1013.5 |
| 20260510131804 | 55 | 205 | 2.0 | 5.0 | 0.00 | 0.33 | 0.00 | 96 | 1013.5 |
| 20260510130904 | 54 | 200 | 1.0 | 2.0 | 0.00 | 0.33 | 0.00 | 96 | 1013.3 |
| 20260510130025 | 54 | 212 | 1.0 | 4.0 | 0.00 | 0.33 | 0.00 | 96 | 1013.2 |
| 20260510125404 | 54 | 194 | 1.0 | 4.0 | 0.00 | 0.33 | 0.00 | 96 | 1013.1 |
| 20260510124525 | 54 | 166 | 1.0 | 3.0 | 0.00 | 0.33 | 0.00 | 96 | 1013.3 |
| 20260510123604 | 54 | 0 | 0.0 | 2.0 | 0.00 | 0.33 | 0.00 | 97 | 1013.1 |
| 20260510122704 | 53 | 277 | 1.0 | 2.0 | 0.00 | 0.33 | 0.00 | 96 | 1013.0 |
| 20260510121825 | 53 | 186 | 1.0 | 4.0 | 0.00 | 0.33 | 0.00 | 96 | 1012.9 |
| 20260510120925 | 53 | 197 | 1.0 | 3.0 | 0.00 | 0.33 | 0.00 | 96 | 1012.8 |
| 20260510120004 | 53 | 175 | 1.0 | 4.0 | 0.00 | 0.33 | 0.00 | 96 | 1012.8 |
| 20260510115404 | 53 | 0 | 0.0 | 1.0 | 0.00 | 0.33 | 0.00 | 96 | 1012.7 |
| 20260510114525 | 52 | 0 | 0.0 | 2.0 | 0.00 | 0.33 | 0.00 | 96 | 1012.7 |
| 20260510113604 | 52 | 0 | 0.0 | 2.0 | 0.00 | 0.33 | 0.00 | 96 | 1012.6 |
| 20260510112704 | 52 | 203 | 1.0 | 3.0 | 0.00 | 0.33 | 0.00 | 96 | 1012.6 |
| 20260510111804 | 52 | 0 | 0.0 | 2.0 | 0.00 | 0.33 | 0.00 | 96 | 1012.6 |
| 20260510110925 | 52 | 209 | 1.0 | 2.0 | 0.00 | 0.33 | 0.00 | 96 | 1012.3 |
| 20260510110004 | 51 | 206 | 1.0 | 2.0 | 0.00 | 0.33 | 0.00 | 96 | 1012.2 |
| 20260510105404 | 51 | 0 | 0.0 | 2.0 | 0.00 | 0.33 | 0.00 | 96 | 1012.0 |
| 20260510104504 | 51 | 0 | 0.0 | 1.0 | 0.00 | 0.33 | 0.00 | 96 | 1012.2 |
| 20260510103625 | 51 | 0 | 0.0 | 1.0 | 0.00 | 0.33 | 0.00 | 96 | 1012.2 |
| 20260510102703 | 51 | 0 | 0.0 | 1.0 | 0.00 | 0.33 | 0.00 | 96 | 1012.2 |
| 20260510101825 | 51 | 0 | 0.0 | 2.0 | 0.00 | 0.33 | 0.00 | 96 | 1012.2 |
| 20260510100904 | 51 | 0 | 0.0 | 1.0 | 0.00 | 0.33 | 0.00 | 96 | 1012.3 |
| 20260510100004 | 51 | 0 | 0.0 | 1.0 | 0.00 | 0.33 | 0.00 | 96 | 1012.3 |
| 20260510095404 | 51 | 0 | 0.0 | 1.0 | 0.00 | 0.33 | 0.00 | 96 | 1012.2 |
| 20260510094504 | 51 | 155 | 1.0 | 2.0 | 0.00 | 0.33 | 0.00 | 96 | 1012.3 |
| 20260510093604 | 51 | 0 | 0.0 | 2.0 | 0.00 | 0.33 | 0.00 | 96 | 1012.3 |
| 20260510092704 | 51 | 0 | 0.0 | 1.0 | 0.00 | 0.33 | 0.00 | 96 | 1012.3 |
| 20260510091804 | 51 | 0 | 0.0 | 2.0 | 0.00 | 0.33 | 0.00 | 96 | 1012.4 |
| 20260510090903 | 52 | 0 | 0.0 | 1.0 | 0.00 | 0.33 | 0.00 | 96 | 1012.5 |
| 20260510090004 | 52 | 0 | 0.0 | 2.0 | 0.00 | 0.33 | 0.00 | 96 | 1012.6 |
| 20260510085425 | 52 | 333 | 1.0 | 2.0 | 0.00 | 0.33 | 0.00 | 96 | 1012.6 |
| 20260510084524 | 52 | 0 | 0.0 | 2.0 | 0.00 | 0.33 | 0.00 | 96 | 1012.6 |
| 20260510083603 | 52 | 347 | 1.0 | 3.0 | 0.00 | 0.33 | 0.00 | 96 | 1012.5 |
| 20260510082704 | 52 | 341 | 2.0 | 3.0 | 0.00 | 0.33 | 0.00 | 96 | 1012.5 |
| 20260510081804 | 52 | 338 | 2.0 | 3.0 | 0.00 | 0.33 | 0.00 | 96 | 1012.2 |
| 20260510080904 | 52 | 333 | 1.0 | 3.0 | 0.00 | 0.33 | 0.00 | 96 | 1012.2 |
| 20260510080004 | 52 | 0 | 0.0 | 2.0 | 0.00 | 0.33 | 0.00 | 96 | 1011.7 |
| 20260510075403 | 52 | 0 | 0.0 | 2.0 | 0.00 | 0.33 | 0.00 | 96 | 1011.6 |
| 20260510074504 | 52 | 0 | 0.0 | 2.0 | 0.00 | 0.33 | 0.00 | 96 | 1011.6 |
| 20260510073624 | 52 | 0 | 0.0 | 0.0 | 0.00 | 0.33 | 0.00 | 96 | 1011.6 |
| 20260510072703 | 52 | 0 | 0.0 | 2.0 | 0.00 | 0.33 | 0.00 | 96 | 1011.5 |
| 20260510071803 | 52 | 286 | 1.0 | 2.0 | 0.00 | 0.33 | 0.00 | 96 | 1011.5 |
| 20260510070903 | 52 | 0 | 0.0 | 1.0 | 0.00 | 0.33 | 0.00 | 96 | 1011.6 |
| 20260510070004 | 52 | 0 | 0.0 | 1.0 | 0.00 | 0.33 | 0.00 | 96 | 1011.7 |
| 20260510065403 | 52 | 0 | 0.0 | 1.0 | 0.00 | 0.33 | 0.00 | 96 | 1011.7 |
| 20260510064503 | 51 | 0 | 0.0 | 1.0 | 0.00 | 0.33 | 0.00 | 96 | 1011.8 |
| 20260510063603 | 50 | 0 | 0.0 | 1.0 | 0.00 | 0.33 | 0.00 | 96 | 1011.7 |
| 20260510062703 | 50 | 0 | 0.0 | 1.0 | 0.00 | 0.33 | 0.00 | 96 | 1011.7 |
| 20260510061824 | 50 | 0 | 0.0 | 1.0 | 0.00 | 0.33 | 0.00 | 96 | 1011.4 |
| 20260510060924 | 49 | 0 | 0.0 | 1.0 | 0.00 | 0.33 | 0.00 | 96 | 1011.3 |
| 20260510060024 | 49 | 0 | 0.0 | 0.0 | 0.00 | 0.33 | 0.00 | 96 | 1011.3 |
| 20260510055424 | 49 | 0 | 0.0 | 0.0 | 0.00 | 0.33 | 0.00 | 95 | 1011.4 |
| 20260510054524 | 49 | 0 | 0.0 | 1.0 | 0.00 | 0.33 | 0.00 | 96 | 1011.3 |
| 20260510053624 | 48 | 0 | 0.0 | 1.0 | 0.00 | 0.33 | 0.00 | 95 | 1011.4 |
| 20260510052703 | 48 | 0 | 0.0 | 1.0 | 0.00 | 0.33 | 0.00 | 95 | 1011.5 |
| 20260510051824 | 48 | 0 | 0.0 | 1.0 | 0.00 | 0.33 | 0.00 | 95 | 1011.5 |
| 20260510050924 | 48 | 0 | 0.0 | 1.0 | 0.00 | 0.33 | 0.00 | 95 | 1011.5 |
| 20260510050004 | 48 | 0 | 0.0 | 1.0 | 0.00 | 0.33 | 0.00 | 95 | 1011.6 |
| 20260510045403 | 48 | 0 | 0.0 | 1.0 | 0.00 | 0.33 | 0.00 | 95 | 1011.6 |
| 20260510044503 | 48 | 0 | 0.0 | 1.0 | 0.00 | 0.33 | 0.00 | 95 | 1011.6 |
| 20260510043604 | 48 | 0 | 0.0 | 1.0 | 0.00 | 0.33 | 0.00 | 95 | 1011.7 |
| 20260510042703 | 48 | 0 | 0.0 | 0.0 | 0.00 | 0.33 | 0.00 | 95 | 1011.7 |
| 20260510041804 | 49 | 0 | 0.0 | 0.0 | 0.00 | 0.33 | 0.00 | 95 | 1011.7 |
| 20260510040904 | 49 | 0 | 0.0 | 0.0 | 0.00 | 0.33 | 0.00 | 95 | 1011.5 |
| 20260510040004 | 49 | 234 | 1.0 | 1.0 | 0.00 | 0.33 | 0.00 | 95 | 1011.6 |
| 20260510035404 | 49 | 0 | 0.0 | 1.0 | 0.00 | 0.33 | 0.33 | 95 | 1011.5 |
| 20260510034525 | 49 | 0 | 0.0 | 0.0 | 0.00 | 0.33 | 0.33 | 95 | 1011.4 |
| 20260510033607 | 49 | 0 | 0.0 | 1.0 | 0.00 | 0.33 | 0.33 | 94 | 1011.3 |
| 20260510032704 | 49 | 0 | 0.0 | 1.0 | 0.00 | 0.33 | 0.33 | 95 | 1011.3 |
| 20260510031804 | 49 | 0 | 0.0 | 0.0 | 0.00 | 0.33 | 0.33 | 95 | 1011.2 |
| 20260510030904 | 49 | 0 | 0.0 | 1.0 | 0.00 | 0.33 | 0.33 | 95 | 1011.2 |
| 20260510030025 | 49 | 0 | 0.0 | 1.0 | 0.00 | 0.33 | 0.33 | 94 | 1011.3 |
| 20260510025425 | 50 | 0 | 0.0 | 1.0 | 0.00 | 0.33 | 0.33 | 94 | 1011.2 |
| 20260510024504 | 50 | 0 | 0.0 | 1.0 | 0.00 | 0.33 | 0.33 | 94 | 1011.2 |
| 20260510023604 | 50 | 0 | 0.0 | 1.0 | 0.00 | 0.33 | 0.33 | 94 | 1011.2 |
| 20260510022704 | 50 | 0 | 0.0 | 1.0 | 0.00 | 0.33 | 0.33 | 94 | 1011.4 |
| 20260510021804 | 50 | 0 | 0.0 | 1.0 | 0.00 | 0.33 | 0.33 | 94 | 1011.3 |
| 20260510020904 | 50 | 0 | 0.0 | 1.0 | 0.00 | 0.33 | 0.33 | 94 | 1011.3 |
| 20260510020004 | 50 | 0 | 0.0 | 1.0 | 0.00 | 0.33 | 0.33 | 94 | 1011.2 |
| 20260510015404 | 50 | 0 | 0.0 | 1.0 | 0.00 | 0.33 | 0.33 | 94 | 1011.2 |
| 20260510014504 | 51 | 0 | 0.0 | 1.0 | 0.00 | 0.33 | 0.33 | 94 | 1011.2 |
| 20260510013604 | 51 | 0 | 0.0 | 0.0 | 0.00 | 0.33 | 0.33 | 93 | 1011.3 |
| 20260510012704 | 51 | 0 | 0.0 | 0.0 | 0.00 | 0.33 | 0.33 | 93 | 1011.1 |
| 20260510011804 | 51 | 0 | 0.0 | 1.0 | 0.00 | 0.33 | 0.33 | 93 | 1011.1 |
| 20260510010925 | 52 | 0 | 0.0 | 1.0 | 0.00 | 0.33 | 0.33 | 93 | 1010.9 |
| 20260510010004 | 52 | 0 | 0.0 | 1.0 | 0.00 | 0.33 | 0.33 | 93 | 1010.8 |
| 20260510005404 | 52 | 0 | 0.0 | 1.0 | 0.00 | 0.33 | 0.33 | 93 | 1010.7 |
| 20260510004504 | 52 | 0 | 0.0 | 1.0 | 0.00 | 0.33 | 0.33 | 93 | 1010.8 |
| 20260510003604 | 52 | 0 | 0.0 | 0.0 | 0.00 | 0.33 | 0.33 | 93 | 1010.7 |
| 20260510002725 | 53 | 0 | 0.0 | 0.0 | 0.00 | 0.33 | 0.33 | 93 | 1010.7 |
| 20260510001804 | 53 | 0 | 0.0 | 0.0 | 0.00 | 0.33 | 0.33 | 93 | 1010.7 |
| 20260510000904 | 53 | 0 | 0.0 | 1.0 | 0.00 | 0.33 | 0.33 | 92 | 1010.6 |
| 20260510000004 | 54 | 0 | 0.0 | 1.0 | 0.00 | 0.33 | 0.33 | 92 | 1010.6 |
| 20260509235404 | 54 | 0 | 0.0 | 1.0 | 0.00 | 0.33 | 0.33 | 92 | 1010.5 |
| 20260509234524 | 54 | 0 | 0.0 | 3.0 | 0.00 | 0.33 | 0.33 | 92 | 1010.4 |
| 20260509233604 | 55 | 200 | 1.0 | 3.0 | 0.00 | 0.33 | 0.33 | 92 | 1010.2 |
| 20260509232703 | 55 | 183 | 1.0 | 2.0 | 0.00 | 0.33 | 0.33 | 93 | 1010.4 |
| 20260509231803 | 55 | 186 | 1.0 | 3.0 | 0.00 | 0.33 | 0.33 | 93 | 1010.5 |
| 20260509230904 | 55 | 0 | 0.0 | 2.0 | 0.00 | 0.33 | 0.33 | 93 | 1010.5 |
| 20260509230004 | 55 | 0 | 0.0 | 3.0 | 0.01 | 0.33 | 0.33 | 93 | 1010.6 |
| 20260509225425 | 55 | 174 | 1.0 | 3.0 | 0.01 | 0.33 | 0.33 | 92 | 1010.7 |
| 20260509224504 | 55 | 187 | 1.0 | 4.0 | 0.04 | 0.33 | 0.33 | 93 | 1010.7 |
| 20260509223603 | 55 | 175 | 1.0 | 4.0 | 0.06 | 0.33 | 0.33 | 93 | 1010.8 |
| 20260509222703 | 55 | 183 | 1.0 | 4.0 | 0.08 | 0.33 | 0.33 | 93 | 1010.8 |
| 20260509221825 | 55 | 189 | 1.0 | 3.0 | 0.10 | 0.33 | 0.33 | 93 | 1011.0 |
| 20260509220903 | 55 | 155 | 1.0 | 2.0 | 0.13 | 0.33 | 0.33 | 93 | 1010.8 |
| 20260509220024 | 55 | 0 | 0.0 | 2.0 | 0.13 | 0.32 | 0.32 | 92 | 1010.9 |
| 20260509215403 | 55 | 190 | 1.0 | 4.0 | 0.13 | 0.32 | 0.32 | 92 | 1011.1 |
| 20260509214524 | 55 | 234 | 1.0 | 2.0 | 0.11 | 0.29 | 0.29 | 92 | 1011.3 |
| 20260509213603 | 55 | 0 | 0.0 | 2.0 | 0.09 | 0.27 | 0.27 | 91 | 1011.1 |
| 20260509212703 | 55 | 131 | 1.0 | 2.0 | 0.08 | 0.25 | 0.25 | 91 | 1011.3 |
| 20260509211803 | 55 | 116 | 1.0 | 2.0 | 0.06 | 0.23 | 0.23 | 90 | 1011.3 |
| 20260509210903 | 55 | 0 | 0.0 | 1.0 | 0.03 | 0.20 | 0.20 | 90 | 1010.9 |
| 20260509210004 | 55 | 98 | 1.0 | 3.0 | 0.02 | 0.19 | 0.19 | 89 | 1010.7 |
| 20260509205403 | 56 | 62 | 1.0 | 3.0 | 0.02 | 0.19 | 0.19 | 90 | 1010.8 |
| 20260509204503 | 56 | 0 | 0.0 | 1.0 | 0.01 | 0.18 | 0.18 | 91 | 1011.0 |
| 20260509203624 | 55 | 0 | 0.0 | 1.0 | 0.02 | 0.18 | 0.18 | 89 | 1011.1 |